Time,TemperatureF,DewpointF,PressureIn,WindDirection,WindDirectionDegrees,WindSpeedMPH,WindSpeedGustMPH,Humidity,HourlyPrecipIn,Conditions,Clouds,dailyrainin,SoftwareType,DateUTC
2013-01-30 00:02:00,47.8,47.5,29.74,WNW,289,0.0,5.0,99,0.01,,---,0.00,VWS V13.01,2013-01-30 05:02:00,
2013-01-30 00:03:00,47.6,47.3,29.73,WNW,286,0.0,5.0,99,0.01,,---,0.00,VWS V13.01,2013-01-30 05:03:00,
2013-01-30 00:04:00,47.6,47.3,29.73,WNW,286,1.0,5.0,99,0.01,,---,0.00,VWS V13.01,2013-01-30 05:04:00,
2013-01-30 00:06:00,47.9,47.6,29.73,NW,313,7.0,7.0,99,0.01,,---,0.00,VWS V13.01,2013-01-30 05:06:00,
2013-01-30 00:11:00,48.3,48.0,29.73,NW,311,0.0,7.0,99,0.01,,---,0.00,VWS V13.01,2013-01-30 05:11:00,
2013-01-30 00:16:00,47.6,47.3,29.72,NW,311,0.0,7.0,99,0.01,,---,0.00,VWS V13.01,2013-01-30 05:16:00,
2013-01-30 00:21:00,47.6,47.3,29.72,NW,311,0.0,7.0,99,0.01,,---,0.00,VWS V13.01,2013-01-30 05:21:00,
2013-01-30 00:26:00,47.3,47.0,29.72,WSW,248,3.0,7.0,99,0.01,,---,0.00,VWS V13.01,2013-01-30 05:26:00,
2013-01-30 00:31:00,47.8,47.5,29.71,West,261,3.0,4.0,99,0.01,,---,0.00,VWS V13.01,2013-01-30 05:31:00,
2013-01-30 00:37:00,47.6,47.3,29.71,West,260,0.0,4.0,99,0.01,,---,0.00,VWS V13.01,2013-01-30 05:37:00,
2013-01-30 00:42:00,48.3,48.0,29.70,WNW,292,0.0,8.0,99,0.01,,---,0.00,VWS V13.01,2013-01-30 05:42:00,
2013-01-30 00:47:00,48.0,47.7,29.69,WSW,237,0.0,8.0,99,0.01,,---,0.00,VWS V13.01,2013-01-30 05:47:00,
2013-01-30 00:52:00,48.0,47.7,29.69,WSW,237,3.0,8.0,99,0.01,,---,0.00,VWS V13.01,2013-01-30 05:52:00,
2013-01-30 00:57:00,47.6,47.3,29.69,WSW,245,0.0,8.0,99,0.01,,---,0.00,VWS V13.01,2013-01-30 05:57:00,
2013-01-30 01:02:00,47.4,47.1,29.68,WSW,245,1.0,2.0,99,0.00,,---,0.00,VWS V13.01,2013-01-30 06:02:00,
2013-01-30 01:07:00,49.5,49.2,29.68,WSW,244,0.0,5.0,99,0.00,,---,0.00,VWS V13.01,2013-01-30 06:07:00,
2013-01-30 01:12:00,49.6,49.3,29.67,WSW,244,0.0,5.0,99,0.00,,---,0.00,VWS V13.01,2013-01-30 06:12:00,
2013-01-30 01:17:00,48.0,47.7,29.67,WSW,244,0.0,5.0,99,0.00,,---,0.00,VWS V13.01,2013-01-30 06:17:00,
2013-01-30 01:22:00,47.4,47.1,29.66,West,264,4.0,6.0,99,0.00,,---,0.00,VWS V13.01,2013-01-30 06:22:00,
2013-01-30 01:28:00,48.3,48.0,29.66,West,263,0.0,6.0,99,0.00,,---,0.00,VWS V13.01,2013-01-30 06:28:00,
2013-01-30 01:33:00,47.6,47.3,29.67,West,268,0.0,5.0,99,0.00,,---,0.00,VWS V13.01,2013-01-30 06:33:00,
2013-01-30 01:38:00,47.2,46.9,29.66,West,268,0.0,5.0,99,0.00,,---,0.00,VWS V13.01,2013-01-30 06:38:00,
2013-01-30 01:43:00,46.7,46.4,29.65,West,268,0.0,5.0,99,0.00,,---,0.00,VWS V13.01,2013-01-30 06:43:00,
2013-01-30 01:48:00,46.8,46.5,29.65,West,268,0.0,5.0,99,0.00,,---,0.00,VWS V13.01,2013-01-30 06:48:00,
2013-01-30 01:53:00,46.5,46.2,29.64,West,268,0.0,5.0,99,0.00,,---,0.00,VWS V13.01,2013-01-30 06:53:00,
2013-01-30 01:58:00,46.8,46.5,29.64,West,268,0.0,5.0,99,0.00,,---,0.00,VWS V13.01,2013-01-30 06:58:00,
2013-01-30 02:03:00,47.1,46.8,29.64,West,268,4.0,4.0,99,0.00,,---,0.00,VWS V13.01,2013-01-30 07:03:00,
2013-01-30 02:08:00,46.3,46.0,29.63,West,268,0.0,4.0,99,0.00,,---,0.00,VWS V13.01,2013-01-30 07:08:00,
2013-01-30 02:13:00,46.2,45.9,29.63,West,268,0.0,4.0,99,0.00,,---,0.00,VWS V13.01,2013-01-30 07:13:00,
2013-01-30 02:18:00,47.2,46.9,29.63,West,266,0.0,7.0,99,0.00,,---,0.00,VWS V13.01,2013-01-30 07:18:00,
2013-01-30 02:24:00,47.1,46.8,29.63,West,266,1.0,7.0,99,0.00,,---,0.00,VWS V13.01,2013-01-30 07:24:00,
2013-01-30 02:29:00,47.9,47.6,29.62,West,275,4.0,7.0,99,0.00,,---,0.00,VWS V13.01,2013-01-30 07:29:00,
2013-01-30 02:34:00,48.6,48.3,29.62,West,278,0.0,5.0,99,0.00,,---,0.00,VWS V13.01,2013-01-30 07:34:00,
2013-01-30 02:39:00,48.0,47.7,29.62,West,277,0.0,5.0,99,0.00,,---,0.00,VWS V13.01,2013-01-30 07:39:00,
2013-01-30 02:44:00,48.3,48.0,29.62,NW,309,0.0,6.0,99,0.00,,---,0.00,VWS V13.01,2013-01-30 07:44:00,
2013-01-30 02:49:00,48.5,48.2,29.61,NW,309,0.0,6.0,99,0.00,,---,0.00,VWS V13.01,2013-01-30 07:49:00,
2013-01-30 02:54:00,48.3,48.0,29.60,NW,309,0.0,6.0,99,0.00,,---,0.00,VWS V13.01,2013-01-30 07:54:00,
2013-01-30 02:59:00,48.5,48.2,29.60,NW,309,3.0,6.0,99,0.00,,---,0.00,VWS V13.01,2013-01-30 07:59:00,
2013-01-30 03:04:00,48.1,47.8,29.60,NW,309,0.0,1.0,99,0.00,,---,0.00,VWS V13.01,2013-01-30 08:04:00,
2013-01-30 03:09:00,47.3,47.0,29.59,NW,309,0.0,3.0,99,0.00,,---,0.00,VWS V13.01,2013-01-30 08:09:00,
2013-01-30 03:14:00,47.0,46.7,29.59,NW,309,3.0,6.0,99,0.00,,---,0.00,VWS V13.01,2013-01-30 08:14:00,
2013-01-30 03:19:00,47.3,47.0,29.59,NW,309,0.0,6.0,99,0.00,,---,0.00,VWS V13.01,2013-01-30 08:19:00,
2013-01-30 03:24:00,47.7,47.4,29.58,NW,309,0.0,6.0,99,0.00,,---,0.00,VWS V13.01,2013-01-30 08:24:00,
2013-01-30 03:30:00,49.5,49.5,29.58,WSW,257,0.0,9.0,100,0.00,,---,0.00,VWS V13.01,2013-01-30 08:30:00,
2013-01-30 03:35:00,49.0,48.7,29.58,WSW,257,2.0,2.0,99,0.00,,---,0.00,VWS V13.01,2013-01-30 08:35:00,
2013-01-30 03:40:00,48.3,48.0,29.57,West,271,3.0,6.0,99,0.00,,---,0.00,VWS V13.01,2013-01-30 08:40:00,
2013-01-30 03:45:00,49.8,49.5,29.56,NNE,14,5.0,9.0,99,0.00,,---,0.00,VWS V13.01,2013-01-30 08:45:00,
2013-01-30 03:50:00,50.0,49.7,29.56,NNE,15,3.0,9.0,99,0.00,,---,0.00,VWS V13.01,2013-01-30 08:50:00,
2013-01-30 03:55:00,50.0,49.7,29.54,NNE,14,2.0,9.0,99,0.00,,---,0.00,VWS V13.01,2013-01-30 08:55:00,
2013-01-30 04:00:00,50.2,49.9,29.54,NNE,12,2.0,9.0,99,0.00,,---,0.00,VWS V13.01,2013-01-30 09:00:00,
2013-01-30 04:05:00,50.2,49.9,29.54,NW,304,0.0,8.0,99,0.00,,---,0.00,VWS V13.01,2013-01-30 09:05:00,
2013-01-30 04:10:00,50.7,50.4,29.54,WNW,297,0.0,8.0,99,0.00,,---,0.00,VWS V13.01,2013-01-30 09:10:00,
2013-01-30 04:15:00,51.3,51.0,29.53,West,259,0.0,9.0,99,0.00,,---,0.00,VWS V13.01,2013-01-30 09:15:00,
2013-01-30 04:20:00,52.8,52.5,29.53,West,275,2.0,9.0,99,0.00,,---,0.00,VWS V13.01,2013-01-30 09:20:00,
2013-01-30 04:25:00,52.8,52.2,29.53,NW,313,0.0,9.0,98,0.00,,---,0.00,VWS V13.01,2013-01-30 09:25:00,
2013-01-30 04:31:00,52.9,51.8,29.52,NNW,342,0.0,0.0,96,0.00,,---,0.00,VWS V13.01,2013-01-30 09:31:00,
2013-01-30 04:36:00,53.0,51.0,29.52,NNW,338,1.0,5.0,93,0.00,,---,0.00,VWS V13.01,2013-01-30 09:36:00,
2013-01-30 04:41:00,52.1,49.8,29.51,NNW,337,0.0,5.0,92,0.00,,---,0.00,VWS V13.01,2013-01-30 09:41:00,
2013-01-30 04:46:00,51.4,49.2,29.50,NW,322,0.0,6.0,92,0.00,,---,0.00,VWS V13.01,2013-01-30 09:46:00,
2013-01-30 04:51:00,51.2,49.2,29.50,NW,321,4.0,11.0,93,0.00,,---,0.00,VWS V13.01,2013-01-30 09:51:00,
2013-01-30 04:56:00,52.8,50.5,29.50,West,270,0.0,11.0,92,0.00,,---,0.00,VWS V13.01,2013-01-30 09:56:00,
2013-01-30 05:01:00,52.6,49.5,29.50,West,269,0.0,5.0,89,0.00,,---,0.00,VWS V13.01,2013-01-30 10:01:00,
2013-01-30 05:06:00,53.8,50.6,29.49,West,280,0.0,11.0,89,0.00,,---,0.00,VWS V13.01,2013-01-30 10:06:00,
2013-01-30 05:11:00,55.1,51.0,29.48,WNW,292,5.0,11.0,86,0.00,,---,0.00,VWS V13.01,2013-01-30 10:11:00,
2013-01-30 05:16:00,55.2,50.8,29.47,SSW,205,0.0,12.0,85,0.00,,---,0.00,VWS V13.01,2013-01-30 10:16:00,
2013-01-30 05:21:00,55.1,50.4,29.48,West,272,0.0,12.0,84,0.00,,---,0.00,VWS V13.01,2013-01-30 10:21:00,
2013-01-30 05:26:00,55.2,50.5,29.46,WSW,237,1.0,12.0,84,0.00,,---,0.00,VWS V13.01,2013-01-30 10:26:00,
2013-01-30 05:32:00,54.8,50.4,29.46,West,272,5.0,9.0,85,0.00,,---,0.00,VWS V13.01,2013-01-30 10:32:00,
2013-01-30 05:37:00,55.8,50.7,29.45,SSE,151,4.0,10.0,83,0.00,,---,0.00,VWS V13.01,2013-01-30 10:37:00,
2013-01-30 05:42:00,56.4,50.3,29.45,WNW,285,6.0,10.0,80,0.00,,---,0.00,VWS V13.01,2013-01-30 10:42:00,
2013-01-30 05:47:00,56.4,50.7,29.45,WNW,294,2.0,16.0,81,0.00,,---,0.00,VWS V13.01,2013-01-30 10:47:00,
2013-01-30 05:52:00,56.2,50.5,29.44,NW,323,0.0,16.0,81,0.00,,---,0.00,VWS V13.01,2013-01-30 10:52:00,
2013-01-30 05:57:00,56.1,50.7,29.44,NNE,12,4.0,16.0,82,0.00,,---,0.00,VWS V13.01,2013-01-30 10:57:00,
2013-01-30 06:02:00,56.9,50.8,29.45,WNW,302,6.0,12.0,80,0.00,,---,0.00,VWS V13.01,2013-01-30 11:02:00,
2013-01-30 06:07:00,57.6,51.1,29.43,ENE,78,8.0,19.0,79,0.00,,---,0.00,VWS V13.01,2013-01-30 11:07:00,
2013-01-30 06:12:00,58.4,51.6,29.43,WSW,256,4.0,19.0,78,0.00,,---,0.00,VWS V13.01,2013-01-30 11:12:00,
2013-01-30 06:17:00,58.6,51.1,29.43,NNW,334,6.0,21.0,76,0.00,,---,0.00,VWS V13.01,2013-01-30 11:17:00,
2013-01-30 06:22:00,58.6,51.4,29.43,South,184,4.0,21.0,77,0.00,,---,0.00,VWS V13.01,2013-01-30 11:22:00,
2013-01-30 06:27:00,59.0,51.5,29.42,West,275,5.0,21.0,76,0.00,,---,0.00,VWS V13.01,2013-01-30 11:27:00,
2013-01-30 06:33:00,59.0,51.5,29.41,WNW,299,0.0,12.0,76,0.00,,---,0.00,VWS V13.01,2013-01-30 11:33:00,
2013-01-30 06:38:00,59.1,51.2,29.42,WNW,298,3.0,12.0,75,0.00,,---,0.00,VWS V13.01,2013-01-30 11:38:00,
2013-01-30 06:43:00,59.0,51.5,29.41,NNE,14,2.0,14.0,76,0.00,,---,0.00,VWS V13.01,2013-01-30 11:43:00,
2013-01-30 06:48:00,59.1,50.8,29.42,NW,315,0.0,14.0,74,0.00,,---,0.00,VWS V13.01,2013-01-30 11:48:00,
2013-01-30 06:53:00,58.5,50.6,29.41,WNW,286,2.0,14.0,75,0.00,,---,0.00,VWS V13.01,2013-01-30 11:53:00,
2013-01-30 06:58:00,58.6,51.1,29.41,WSW,258,4.0,14.0,76,0.00,,---,0.00,VWS V13.01,2013-01-30 11:58:00,
2013-01-30 07:03:00,59.0,51.5,29.39,NNW,335,4.0,7.0,76,0.00,,---,0.00,VWS V13.01,2013-01-30 12:03:00,
2013-01-30 07:08:00,59.0,51.5,29.40,WNW,300,8.0,12.0,76,0.00,,---,0.00,VWS V13.01,2013-01-30 12:08:00,
2013-01-30 07:13:00,58.4,50.5,29.39,ENE,63,0.0,12.0,75,0.00,,---,0.00,VWS V13.01,2013-01-30 12:13:00,
2013-01-30 07:18:00,58.2,50.7,29.39,NW,313,5.0,12.0,76,0.00,,---,0.00,VWS V13.01,2013-01-30 12:18:00,
2013-01-30 07:23:00,58.0,50.8,29.39,NW,320,0.0,12.0,77,0.00,,---,0.00,VWS V13.01,2013-01-30 12:23:00,
2013-01-30 07:29:00,58.0,50.1,29.39,WNW,288,11.0,13.0,75,0.00,,---,0.00,VWS V13.01,2013-01-30 12:29:00,
2013-01-30 07:34:00,58.3,51.1,29.37,South,191,0.0,7.0,77,0.00,,---,0.00,VWS V13.01,2013-01-30 12:34:00,
2013-01-30 07:39:00,58.6,51.1,29.37,West,275,0.0,12.0,76,0.00,,---,0.00,VWS V13.01,2013-01-30 12:39:00,
2013-01-30 07:44:00,59.0,51.5,29.37,NW,321,1.0,13.0,76,0.00,,---,0.00,VWS V13.01,2013-01-30 12:44:00,
2013-01-30 07:49:00,59.0,51.1,29.37,West,277,2.0,13.0,75,0.00,,---,0.00,VWS V13.01,2013-01-30 12:49:00,
2013-01-30 07:54:00,59.0,50.7,29.37,WNW,300,0.0,13.0,74,0.00,,---,0.00,VWS V13.01,2013-01-30 12:54:00,
2013-01-30 07:59:00,59.0,51.5,29.36,SW,216,12.0,14.0,76,0.00,,---,0.00,VWS V13.01,2013-01-30 12:59:00,
2013-01-30 08:04:00,59.0,51.1,29.36,NNW,333,8.0,12.0,75,0.00,,---,0.00,VWS V13.01,2013-01-30 13:04:00,
2013-01-30 08:10:00,59.0,51.1,29.35,SW,231,0.0,12.0,75,0.00,,---,0.00,VWS V13.01,2013-01-30 13:10:00,
2013-01-30 08:15:00,59.0,51.1,29.35,NW,314,3.0,12.0,75,0.00,,---,0.00,VWS V13.01,2013-01-30 13:15:00,
2013-01-30 08:20:00,59.5,51.6,29.35,SE,129,0.0,16.0,75,0.00,,---,0.00,VWS V13.01,2013-01-30 13:20:00,
2013-01-30 08:25:00,59.5,50.8,29.35,NW,318,1.0,16.0,73,0.00,,---,0.00,VWS V13.01,2013-01-30 13:25:00,
2013-01-30 08:30:00,59.1,51.2,29.33,West,264,2.0,16.0,75,0.00,,---,0.00,VWS V13.01,2013-01-30 13:30:00,
2013-01-30 08:35:00,59.0,51.1,29.33,WNW,284,7.0,13.0,75,0.00,,---,0.00,VWS V13.01,2013-01-30 13:35:00,
2013-01-30 08:40:00,58.8,51.3,29.33,ENE,59,7.0,13.0,76,0.00,,---,0.00,VWS V13.01,2013-01-30 13:40:00,
2013-01-30 08:45:00,59.0,51.5,29.33,WNW,288,5.0,18.0,76,0.00,,---,0.00,VWS V13.01,2013-01-30 13:45:00,
2013-01-30 08:50:00,59.0,51.5,29.33,NW,322,2.0,18.0,76,0.00,,---,0.00,VWS V13.01,2013-01-30 13:50:00,
2013-01-30 08:55:00,59.1,51.5,29.32,SSE,148,0.0,18.0,76,0.00,,---,0.00,VWS V13.01,2013-01-30 13:55:00,
2013-01-30 09:01:00,59.1,51.2,29.31,NNW,338,4.0,9.0,75,0.00,,---,0.00,VWS V13.01,2013-01-30 14:01:00,
2013-01-30 09:06:00,59.0,51.8,29.30,NE,38,0.0,13.0,77,0.00,,---,0.00,VWS V13.01,2013-01-30 14:06:00,
2013-01-30 09:11:00,59.0,51.8,29.29,NE,35,6.0,13.0,77,0.00,,---,0.00,VWS V13.01,2013-01-30 14:11:00,
2013-01-30 09:16:00,59.1,51.9,29.28,WNW,284,0.0,14.0,77,0.00,,---,0.00,VWS V13.01,2013-01-30 14:16:00,
2013-01-30 09:21:00,59.3,51.8,29.28,WNW,295,4.0,14.0,76,0.00,,---,0.00,VWS V13.01,2013-01-30 14:21:00,
2013-01-30 09:26:00,59.5,51.9,29.28,NW,317,6.0,14.0,76,0.00,,---,0.00,VWS V13.01,2013-01-30 14:26:00,
2013-01-30 09:31:00,59.8,52.2,29.28,SSW,200,5.0,10.0,76,0.00,,---,0.00,VWS V13.01,2013-01-30 14:31:00,
2013-01-30 09:36:00,59.8,51.9,29.29,NW,310,13.0,13.0,75,0.00,,---,0.00,VWS V13.01,2013-01-30 14:36:00,
2013-01-30 09:41:00,59.5,52.3,29.28,NW,323,2.0,15.0,77,0.00,,---,0.00,VWS V13.01,2013-01-30 14:41:00,
2013-01-30 09:46:00,59.0,52.5,29.27,SE,144,1.0,15.0,79,0.01,,---,0.01,VWS V13.01,2013-01-30 14:46:00,
2013-01-30 09:51:00,58.3,52.8,29.28,WSW,241,4.0,15.0,82,0.01,,---,0.01,VWS V13.01,2013-01-30 14:51:00,
2013-01-30 09:56:00,58.1,53.0,29.27,SW,215,1.0,15.0,83,0.02,,---,0.02,VWS V13.01,2013-01-30 14:56:00,
2013-01-30 10:02:00,58.0,52.9,29.27,NNW,343,3.0,9.0,83,0.03,,---,0.03,VWS V13.01,2013-01-30 15:02:00,
2013-01-30 10:07:00,57.6,52.8,29.26,NW,309,3.0,9.0,84,0.03,,---,0.03,VWS V13.01,2013-01-30 15:07:00,
2013-01-30 10:12:00,56.9,53.1,29.26,WNW,302,0.0,9.0,87,0.03,,---,0.03,VWS V13.01,2013-01-30 15:12:00,
2013-01-30 10:17:00,56.6,52.5,29.27,NNW,330,4.0,10.0,86,0.04,,---,0.04,VWS V13.01,2013-01-30 15:17:00,
2013-01-30 10:22:00,56.5,53.0,29.26,WNW,298,0.0,10.0,88,0.04,,---,0.04,VWS V13.01,2013-01-30 15:22:00,
2013-01-30 10:27:00,56.4,53.5,29.27,NNW,331,1.0,10.0,90,0.04,,---,0.04,VWS V13.01,2013-01-30 15:27:00,
2013-01-30 10:32:00,56.5,53.6,29.29,WNW,296,9.0,12.0,90,0.05,,---,0.05,VWS V13.01,2013-01-30 15:32:00,
2013-01-30 10:37:00,56.3,53.4,29.32,West,261,5.0,12.0,90,0.07,,---,0.07,VWS V13.01,2013-01-30 15:37:00,
2013-01-30 10:42:00,55.4,52.8,29.34,WSW,242,18.0,19.0,91,0.11,,---,0.11,VWS V13.01,2013-01-30 15:42:00,
2013-01-30 10:47:00,55.7,53.7,29.34,West,269,10.0,21.0,93,0.12,,---,0.12,VWS V13.01,2013-01-30 15:47:00,
2013-01-30 10:52:00,56.0,54.0,29.34,West,271,10.0,21.0,93,0.14,,---,0.14,VWS V13.01,2013-01-30 15:52:00,
2013-01-30 10:57:00,56.5,54.5,29.34,West,271,7.0,23.0,93,0.14,,---,0.14,VWS V13.01,2013-01-30 15:57:00,
2013-01-30 11:03:00,56.8,54.8,29.34,WSW,250,5.0,12.0,93,0.11,,---,0.14,VWS V13.01,2013-01-30 16:03:00,
2013-01-30 11:08:00,56.9,54.6,29.34,WNW,294,6.0,12.0,92,0.12,,---,0.15,VWS V13.01,2013-01-30 16:08:00,
2013-01-30 11:13:00,56.8,54.5,29.34,West,276,0.0,12.0,92,0.12,,---,0.15,VWS V13.01,2013-01-30 16:13:00,
2013-01-30 11:18:00,56.8,54.8,29.34,West,275,6.0,12.0,93,0.13,,---,0.16,VWS V13.01,2013-01-30 16:18:00,
2013-01-30 11:23:00,56.7,54.4,29.34,West,275,0.0,12.0,92,0.13,,---,0.16,VWS V13.01,2013-01-30 16:23:00,
2013-01-30 11:28:00,56.5,54.5,29.33,West,275,0.0,12.0,93,0.13,,---,0.16,VWS V13.01,2013-01-30 16:28:00,
2013-01-30 11:33:00,56.9,54.9,29.32,West,275,0.0,5.0,93,0.12,,---,0.17,VWS V13.01,2013-01-30 16:33:00,
2013-01-30 11:38:00,57.1,55.1,29.31,West,275,0.0,5.0,93,0.12,,---,0.17,VWS V13.01,2013-01-30 16:38:00,
2013-01-30 11:43:00,57.0,55.0,29.31,West,275,0.0,5.0,93,0.12,,---,0.17,VWS V13.01,2013-01-30 16:43:00,
2013-01-30 11:48:00,56.8,54.8,29.30,West,274,0.0,5.0,93,0.12,,---,0.17,VWS V13.01,2013-01-30 16:48:00,
2013-01-30 11:53:00,56.6,54.6,29.30,West,275,0.0,5.0,93,0.12,,---,0.17,VWS V13.01,2013-01-30 16:53:00,
2013-01-30 11:58:00,56.5,54.5,29.29,West,275,0.0,6.0,93,0.12,,---,0.17,VWS V13.01,2013-01-30 16:58:00,
2013-01-30 12:04:00,56.5,54.5,29.28,West,275,0.0,1.0,93,0.03,,---,0.17,VWS V13.01,2013-01-30 17:04:00,
2013-01-30 12:09:00,56.3,54.3,29.27,West,275,0.0,1.0,93,0.03,,---,0.17,VWS V13.01,2013-01-30 17:09:00,
2013-01-30 12:14:00,56.3,54.0,29.26,NNW,327,0.0,7.0,92,0.03,,---,0.17,VWS V13.01,2013-01-30 17:14:00,
2013-01-30 12:19:00,56.2,53.9,29.26,NNW,327,0.0,7.0,92,0.03,,---,0.17,VWS V13.01,2013-01-30 17:19:00,
2013-01-30 12:24:00,56.0,53.4,29.26,NNW,327,0.0,7.0,91,0.04,,---,0.18,VWS V13.01,2013-01-30 17:24:00,
2013-01-30 12:29:00,55.7,53.4,29.27,NNW,327,0.0,7.0,92,0.04,,---,0.18,VWS V13.01,2013-01-30 17:29:00,
2013-01-30 12:34:00,55.3,53.3,29.27,NNW,327,0.0,1.0,93,0.02,,---,0.18,VWS V13.01,2013-01-30 17:34:00,
2013-01-30 12:39:00,55.2,53.2,29.27,NNW,327,2.0,2.0,93,0.02,,---,0.18,VWS V13.01,2013-01-30 17:39:00,
2013-01-30 12:44:00,55.2,53.5,29.27,NNW,327,0.0,5.0,94,0.02,,---,0.18,VWS V13.01,2013-01-30 17:44:00,
2013-01-30 12:49:00,55.3,53.6,29.26,NNW,327,4.0,7.0,94,0.02,,---,0.18,VWS V13.01,2013-01-30 17:49:00,
2013-01-30 12:54:00,55.8,54.1,29.27,WNW,300,0.0,12.0,94,0.02,,---,0.18,VWS V13.01,2013-01-30 17:54:00,
2013-01-30 12:59:00,56.4,54.4,29.27,NW,307,8.0,13.0,93,0.02,,---,0.18,VWS V13.01,2013-01-30 17:59:00,
2013-01-30 13:05:00,56.6,54.0,29.27,WNW,284,9.0,14.0,91,0.01,,---,0.18,VWS V13.01,2013-01-30 18:05:00,
2013-01-30 13:10:00,56.7,54.1,29.26,WNW,295,10.0,15.0,91,0.01,,---,0.19,VWS V13.01,2013-01-30 18:10:00,
2013-01-30 13:15:00,56.7,53.8,29.26,WNW,303,5.0,18.0,90,0.02,,---,0.19,VWS V13.01,2013-01-30 18:15:00,
2013-01-30 13:20:00,56.7,53.8,29.26,West,267,1.0,18.0,90,0.02,,---,0.19,VWS V13.01,2013-01-30 18:20:00,
2013-01-30 13:25:00,56.8,53.9,29.25,WSW,250,7.0,18.0,90,0.02,,---,0.19,VWS V13.01,2013-01-30 18:25:00,
2013-01-30 13:30:00,56.7,53.8,29.25,WNW,292,5.0,18.0,90,0.02,,---,0.19,VWS V13.01,2013-01-30 18:30:00,
2013-01-30 13:35:00,56.7,53.8,29.25,WNW,288,7.0,13.0,90,0.02,,---,0.20,VWS V13.01,2013-01-30 18:35:00,
2013-01-30 13:40:00,56.6,53.7,29.25,WNW,290,1.0,13.0,90,0.02,,---,0.20,VWS V13.01,2013-01-30 18:40:00,
2013-01-30 13:45:00,56.6,53.7,29.25,WNW,298,0.0,13.0,90,0.02,,---,0.20,VWS V13.01,2013-01-30 18:45:00,
2013-01-30 13:50:00,56.6,53.7,29.25,WNW,296,0.0,13.0,90,0.02,,---,0.20,VWS V13.01,2013-01-30 18:50:00,
2013-01-30 13:56:00,56.5,53.6,29.24,WNW,294,0.0,14.0,90,0.02,,---,0.20,VWS V13.01,2013-01-30 18:56:00,
2013-01-30 14:01:00,56.5,53.6,29.25,West,273,0.0,5.0,90,0.02,,---,0.20,VWS V13.01,2013-01-30 19:01:00,
2013-01-30 14:06:00,56.5,53.6,29.25,West,259,6.0,14.0,90,0.03,,---,0.21,VWS V13.01,2013-01-30 19:06:00,
2013-01-30 14:11:00,56.5,53.6,29.25,WNW,300,7.0,14.0,90,0.03,,---,0.21,VWS V13.01,2013-01-30 19:11:00,
2013-01-30 14:16:00,56.4,53.5,29.25,NW,317,0.0,14.0,90,0.03,,---,0.21,VWS V13.01,2013-01-30 19:16:00,
2013-01-30 14:21:00,56.2,53.3,29.23,NE,34,0.0,14.0,90,0.03,,---,0.21,VWS V13.01,2013-01-30 19:21:00,
2013-01-30 14:26:00,56.2,53.3,29.23,WSW,248,9.0,15.0,90,0.03,,---,0.21,VWS V13.01,2013-01-30 19:26:00,
2013-01-30 14:31:00,56.2,53.6,29.23,NNE,22,0.0,1.0,91,0.02,,---,0.21,VWS V13.01,2013-01-30 19:31:00,
2013-01-30 14:36:00,56.3,53.4,29.23,East,92,5.0,12.0,90,0.03,,---,0.22,VWS V13.01,2013-01-30 19:36:00,
2013-01-30 14:41:00,56.2,53.3,29.23,NE,34,2.0,12.0,90,0.03,,---,0.22,VWS V13.01,2013-01-30 19:41:00,
2013-01-30 14:46:00,55.9,53.0,29.22,WSW,246,11.0,15.0,90,0.03,,---,0.23,VWS V13.01,2013-01-30 19:46:00,
2013-01-30 14:51:00,56.0,53.4,29.21,NW,314,4.0,15.0,91,0.04,,---,0.23,VWS V13.01,2013-01-30 19:51:00,
2013-01-30 14:56:00,56.0,53.1,29.21,West,273,6.0,15.0,90,0.04,,---,0.23,VWS V13.01,2013-01-30 19:56:00,
2013-01-30 15:02:00,56.0,53.1,29.22,SE,146,0.0,6.0,90,0.03,,---,0.23,VWS V13.01,2013-01-30 20:02:00,
2013-01-30 15:07:00,56.0,53.1,29.22,NW,321,3.0,18.0,90,0.03,,---,0.23,VWS V13.01,2013-01-30 20:07:00,
2013-01-30 15:12:00,55.9,53.0,29.23,West,261,2.0,21.0,90,0.03,,---,0.23,VWS V13.01,2013-01-30 20:12:00,
2013-01-30 15:17:00,55.7,52.8,29.23,North,360,8.0,21.0,90,0.04,,---,0.24,VWS V13.01,2013-01-30 20:17:00,
2013-01-30 15:22:00,55.7,52.8,29.24,WNW,294,5.0,21.0,90,0.04,,---,0.24,VWS V13.01,2013-01-30 20:22:00,
2013-01-30 15:27:00,55.7,52.8,29.22,NW,309,4.0,21.0,90,0.05,,---,0.25,VWS V13.01,2013-01-30 20:27:00,
2013-01-30 15:32:00,55.7,52.8,29.21,SW,225,4.0,11.0,90,0.04,,---,0.25,VWS V13.01,2013-01-30 20:32:00,
2013-01-30 15:37:00,55.6,52.7,29.21,WSW,258,0.0,18.0,90,0.04,,---,0.25,VWS V13.01,2013-01-30 20:37:00,
2013-01-30 15:42:00,55.5,52.6,29.20,SW,236,20.0,20.0,90,0.04,,---,0.25,VWS V13.01,2013-01-30 20:42:00,
2013-01-30 15:47:00,55.5,52.6,29.20,SW,233,6.0,20.0,90,0.04,,---,0.25,VWS V13.01,2013-01-30 20:47:00,
2013-01-30 15:52:00,55.5,52.6,29.19,South,175,0.0,20.0,90,0.05,,---,0.26,VWS V13.01,2013-01-30 20:52:00,
2013-01-30 15:57:00,55.4,52.5,29.18,WNW,302,4.0,20.0,90,0.05,,---,0.26,VWS V13.01,2013-01-30 20:57:00,
2013-01-30 16:02:00,55.2,52.3,29.18,NNW,341,6.0,9.0,90,0.03,,---,0.26,VWS V13.01,2013-01-30 21:02:00,
2013-01-30 16:07:00,55.1,52.2,29.16,WSW,256,3.0,16.0,90,0.03,,---,0.26,VWS V13.01,2013-01-30 21:07:00,
2013-01-30 16:13:00,55.2,52.3,29.17,WNW,296,2.0,16.0,90,0.03,,---,0.26,VWS V13.01,2013-01-30 21:13:00,
2013-01-30 16:18:00,55.2,52.0,29.18,WNW,300,2.0,18.0,89,0.03,,---,0.26,VWS V13.01,2013-01-30 21:18:00,
2013-01-30 16:23:00,55.1,51.9,29.17,West,280,0.0,20.0,89,0.03,,---,0.26,VWS V13.01,2013-01-30 21:23:00,
2013-01-30 16:28:00,55.0,51.5,29.17,NW,319,6.0,20.0,88,0.03,,---,0.26,VWS V13.01,2013-01-30 21:28:00,
2013-01-30 16:33:00,55.2,51.7,29.18,WNW,303,10.0,18.0,88,0.01,,---,0.26,VWS V13.01,2013-01-30 21:33:00,
2013-01-30 16:38:00,55.2,51.7,29.17,South,169,1.0,18.0,88,0.01,,---,0.26,VWS V13.01,2013-01-30 21:38:00,
2013-01-30 16:43:00,55.3,52.1,29.17,NNE,15,0.0,18.0,89,0.01,,---,0.26,VWS V13.01,2013-01-30 21:43:00,
2013-01-30 16:48:00,55.2,51.7,29.17,West,259,9.0,18.0,88,0.01,,---,0.26,VWS V13.01,2013-01-30 21:48:00,
2013-01-30 16:53:00,55.1,51.6,29.17,NNW,340,0.0,18.0,88,0.01,,---,0.26,VWS V13.01,2013-01-30 21:53:00,
2013-01-30 16:58:00,55.0,51.5,29.18,NE,41,9.0,18.0,88,0.01,,---,0.26,VWS V13.01,2013-01-30 21:58:00,
2013-01-30 17:03:00,54.9,51.4,29.18,West,281,11.0,14.0,88,0.00,,---,0.26,VWS V13.01,2013-01-30 22:03:00,
2013-01-30 17:08:00,55.0,51.5,29.18,East,94,5.0,15.0,88,0.00,,---,0.26,VWS V13.01,2013-01-30 22:08:00,
2013-01-30 17:13:00,54.9,51.4,29.18,NW,325,2.0,15.0,88,0.00,,---,0.26,VWS V13.01,2013-01-30 22:13:00,
2013-01-30 17:18:00,54.9,51.4,29.18,West,277,0.0,15.0,88,0.00,,---,0.26,VWS V13.01,2013-01-30 22:18:00,
2013-01-30 17:24:00,54.9,51.4,29.17,West,272,9.0,16.0,88,0.00,,---,0.26,VWS V13.01,2013-01-30 22:24:00,
2013-01-30 17:29:00,55.0,51.5,29.17,NNW,327,4.0,16.0,88,0.00,,---,0.26,VWS V13.01,2013-01-30 22:29:00,
2013-01-30 17:34:00,55.0,51.2,29.15,WNW,288,12.0,12.0,87,0.00,,---,0.26,VWS V13.01,2013-01-30 22:34:00,
2013-01-30 17:39:00,55.0,51.2,29.14,WSW,249,4.0,12.0,87,0.00,,---,0.26,VWS V13.01,2013-01-30 22:39:00,
2013-01-30 17:44:00,54.9,51.1,29.12,NW,324,0.0,12.0,87,0.00,,---,0.26,VWS V13.01,2013-01-30 22:44:00,
2013-01-30 17:49:00,54.9,51.1,29.12,WNW,284,2.0,12.0,87,0.00,,---,0.26,VWS V13.01,2013-01-30 22:49:00,
2013-01-30 17:54:00,55.0,50.9,29.09,NE,38,6.0,14.0,86,0.00,,---,0.26,VWS V13.01,2013-01-30 22:54:00,
2013-01-30 17:59:00,54.9,50.8,29.09,NW,319,9.0,18.0,86,0.00,,---,0.26,VWS V13.01,2013-01-30 22:59:00,
2013-01-30 18:04:00,54.8,51.0,29.11,NNW,328,6.0,15.0,87,0.00,,---,0.26,VWS V13.01,2013-01-30 23:04:00,
2013-01-30 18:09:00,54.8,51.0,29.09,NNW,338,2.0,15.0,87,0.00,,---,0.26,VWS V13.01,2013-01-30 23:09:00,
2013-01-30 18:14:00,54.7,50.9,29.08,West,260,5.0,15.0,87,0.00,,---,0.26,VWS V13.01,2013-01-30 23:14:00,
2013-01-30 18:20:00,54.6,50.8,29.08,NW,307,4.0,15.0,87,0.00,,---,0.26,VWS V13.01,2013-01-30 23:20:00,
2013-01-30 18:25:00,54.5,51.0,29.08,NW,318,2.0,15.0,88,0.00,,---,0.26,VWS V13.01,2013-01-30 23:25:00,
2013-01-30 18:30:00,54.5,51.0,29.07,NW,309,9.0,15.0,88,0.00,,---,0.26,VWS V13.01,2013-01-30 23:30:00,
2013-01-30 18:35:00,54.4,50.6,29.09,NW,319,0.0,16.0,87,0.00,,---,0.26,VWS V13.01,2013-01-30 23:35:00,
2013-01-30 18:40:00,54.4,50.6,29.10,West,280,6.0,16.0,87,0.00,,---,0.26,VWS V13.01,2013-01-30 23:40:00,
2013-01-30 18:45:00,54.3,50.5,29.10,NW,315,9.0,16.0,87,0.00,,---,0.26,VWS V13.01,2013-01-30 23:45:00,
2013-01-30 18:50:00,54.5,50.7,29.09,WNW,297,8.0,19.0,87,0.00,,---,0.26,VWS V13.01,2013-01-30 23:50:00,
2013-01-30 18:55:00,54.5,50.7,29.09,NNW,348,3.0,20.0,87,0.00,,---,0.26,VWS V13.01,2013-01-30 23:55:00,
2013-01-30 19:00:00,54.5,50.7,29.08,NW,321,0.0,0.0,87,0.00,,---,0.26,VWS V13.01,2013-01-31 00:00:00,
2013-01-30 19:06:00,54.4,50.6,29.08,West,271,12.0,18.0,87,0.00,,---,0.26,VWS V13.01,2013-01-31 00:06:00,
2013-01-30 19:11:00,54.4,50.6,29.08,NNE,14,5.0,18.0,87,0.00,,---,0.26,VWS V13.01,2013-01-31 00:11:00,
2013-01-30 19:16:00,54.4,50.9,29.07,SW,223,6.0,19.0,88,0.00,,---,0.26,VWS V13.01,2013-01-31 00:16:00,
2013-01-30 19:21:00,54.4,50.9,29.06,NW,314,0.0,19.0,88,0.00,,---,0.26,VWS V13.01,2013-01-31 00:21:00,
2013-01-30 19:26:00,54.5,51.0,29.04,NNW,345,10.0,19.0,88,0.00,,---,0.26,VWS V13.01,2013-01-31 00:26:00,
2013-01-30 19:31:00,54.5,51.0,29.05,West,263,4.0,6.0,88,0.00,,---,0.26,VWS V13.01,2013-01-31 00:31:00,
2013-01-30 19:36:00,54.2,50.7,29.04,WNW,297,2.0,13.0,88,0.00,,---,0.26,VWS V13.01,2013-01-31 00:36:00,
2013-01-30 19:41:00,54.3,51.1,29.04,West,269,0.0,13.0,89,0.00,,---,0.26,VWS V13.01,2013-01-31 00:41:00,
2013-01-30 19:46:00,54.5,51.3,29.04,WNW,286,8.0,14.0,89,0.00,,---,0.26,VWS V13.01,2013-01-31 00:46:00,
2013-01-30 19:51:00,54.6,51.1,29.04,NW,305,7.0,14.0,88,0.00,,---,0.26,VWS V13.01,2013-01-31 00:51:00,
2013-01-30 19:56:00,54.5,51.0,29.03,NNW,336,5.0,19.0,88,0.00,,---,0.26,VWS V13.01,2013-01-31 00:56:00,
2013-01-30 20:02:00,54.6,51.1,29.03,NW,321,4.0,5.0,88,0.00,,---,0.26,VWS V13.01,2013-01-31 01:02:00,
2013-01-30 20:07:00,54.7,50.9,29.05,NNW,346,9.0,11.0,87,0.00,,---,0.26,VWS V13.01,2013-01-31 01:07:00,
2013-01-30 20:12:00,54.8,51.3,29.04,NNW,346,7.0,15.0,88,0.00,,---,0.26,VWS V13.01,2013-01-31 01:12:00,
2013-01-30 20:17:00,54.8,51.3,29.03,East,84,1.0,15.0,88,0.00,,---,0.26,VWS V13.01,2013-01-31 01:17:00,
2013-01-30 20:22:00,54.7,51.5,29.02,West,261,7.0,15.0,89,0.01,,---,0.27,VWS V13.01,2013-01-31 01:22:00,
2013-01-30 20:27:00,54.6,51.4,29.01,WNW,294,0.0,15.0,89,0.01,,---,0.27,VWS V13.01,2013-01-31 01:27:00,
2013-01-30 20:32:00,54.4,51.2,29.00,WNW,288,6.0,9.0,89,0.02,,---,0.28,VWS V13.01,2013-01-31 01:32:00,
2013-01-30 20:37:00,54.2,51.3,29.01,WNW,297,0.0,9.0,90,0.03,,---,0.29,VWS V13.01,2013-01-31 01:37:00,
2013-01-30 20:42:00,54.0,51.1,29.00,WNW,288,0.0,9.0,90,0.03,,---,0.29,VWS V13.01,2013-01-31 01:42:00,
2013-01-30 20:48:00,53.8,50.9,28.99,WNW,303,1.0,9.0,90,0.04,,---,0.30,VWS V13.01,2013-01-31 01:48:00,
2013-01-30 20:53:00,53.4,50.8,28.98,WNW,299,0.0,9.0,91,0.06,,---,0.32,VWS V13.01,2013-01-31 01:53:00,
2013-01-30 20:58:00,53.0,50.7,28.98,WNW,299,0.0,9.0,92,0.08,,---,0.35,VWS V13.01,2013-01-31 01:58:00,
2013-01-30 21:03:00,52.8,50.8,28.98,SSE,149,0.0,9.0,93,0.10,,---,0.36,VWS V13.01,2013-01-31 02:03:00,
2013-01-30 21:08:00,53.0,51.0,28.96,SE,134,0.0,9.0,93,0.11,,---,0.37,VWS V13.01,2013-01-31 02:08:00,
2013-01-30 21:13:00,52.9,50.9,28.95,East,81,3.0,9.0,93,0.13,,---,0.39,VWS V13.01,2013-01-31 02:13:00,
2013-01-30 21:18:00,53.0,51.0,28.95,ENE,77,0.0,9.0,93,0.14,,---,0.40,VWS V13.01,2013-01-31 02:18:00,
2013-01-30 21:24:00,53.1,51.1,28.93,West,276,2.0,19.0,93,0.14,,---,0.40,VWS V13.01,2013-01-31 02:24:00,
2013-01-30 21:29:00,53.4,51.4,28.94,NW,304,6.0,19.0,93,0.14,,---,0.40,VWS V13.01,2013-01-31 02:29:00,
2013-01-30 21:34:00,53.7,51.7,28.93,South,177,0.0,14.0,93,0.12,,---,0.40,VWS V13.01,2013-01-31 02:34:00,
2013-01-30 21:39:00,53.9,51.9,28.93,WSW,248,8.0,14.0,93,0.12,,---,0.40,VWS V13.01,2013-01-31 02:39:00,
2013-01-30 21:44:00,54.2,51.9,28.93,West,276,0.0,14.0,92,0.12,,---,0.40,VWS V13.01,2013-01-31 02:44:00,
2013-01-30 21:49:00,54.4,51.8,28.93,NW,304,2.0,14.0,91,0.13,,---,0.41,VWS V13.01,2013-01-31 02:49:00,
2013-01-30 21:54:00,54.4,51.8,28.91,WSW,250,4.0,14.0,91,0.13,,---,0.41,VWS V13.01,2013-01-31 02:54:00,
2013-01-30 21:59:00,54.3,51.7,28.92,NNW,332,5.0,16.0,91,0.13,,---,0.41,VWS V13.01,2013-01-31 02:59:00,
2013-01-30 22:04:00,54.2,51.3,28.92,WNW,294,11.0,11.0,90,0.06,,---,0.41,VWS V13.01,2013-01-31 03:04:00,
2013-01-30 22:09:00,54.1,51.2,28.93,NW,319,7.0,14.0,90,0.07,,---,0.42,VWS V13.01,2013-01-31 03:09:00,
2013-01-30 22:15:00,54.1,51.2,28.93,West,275,3.0,14.0,90,0.07,,---,0.42,VWS V13.01,2013-01-31 03:15:00,
2013-01-30 22:20:00,54.1,51.2,28.93,NW,315,1.0,15.0,90,0.07,,---,0.42,VWS V13.01,2013-01-31 03:20:00,
2013-01-30 22:25:00,53.9,51.0,28.93,West,270,6.0,18.0,90,0.08,,---,0.43,VWS V13.01,2013-01-31 03:25:00,
2013-01-30 22:30:00,53.5,50.6,28.92,WNW,300,8.0,18.0,90,0.08,,---,0.43,VWS V13.01,2013-01-31 03:30:00,
2013-01-30 22:35:00,53.5,50.9,28.92,West,277,6.0,16.0,91,0.04,,---,0.44,VWS V13.01,2013-01-31 03:35:00,
2013-01-30 22:40:00,53.4,50.5,28.91,West,269,10.0,16.0,90,0.04,,---,0.44,VWS V13.01,2013-01-31 03:40:00,
2013-01-30 22:45:00,53.2,50.7,28.91,West,275,9.0,16.0,91,0.05,,---,0.45,VWS V13.01,2013-01-31 03:45:00,
2013-01-30 22:50:00,53.2,50.3,28.91,West,278,8.0,26.0,90,0.06,,---,0.46,VWS V13.01,2013-01-31 03:50:00,
2013-01-30 22:55:00,53.0,50.2,28.90,West,269,6.0,26.0,90,0.06,,---,0.46,VWS V13.01,2013-01-31 03:55:00,
2013-01-30 23:00:00,52.9,50.0,28.90,West,271,6.0,8.0,90,0.07,,---,0.47,VWS V13.01,2013-01-31 04:00:00,
2013-01-30 23:05:00,52.8,50.0,28.90,West,281,11.0,14.0,90,0.06,,---,0.47,VWS V13.01,2013-01-31 04:05:00,
2013-01-30 23:10:00,52.4,49.6,28.89,West,267,20.0,20.0,90,0.07,,---,0.48,VWS V13.01,2013-01-31 04:10:00,
2013-01-30 23:16:00,52.3,49.2,28.90,West,279,9.0,23.0,89,0.07,,---,0.48,VWS V13.01,2013-01-31 04:16:00,
2013-01-30 23:21:00,52.1,49.3,28.89,WNW,284,8.0,23.0,90,0.07,,---,0.48,VWS V13.01,2013-01-31 04:21:00,
2013-01-30 23:26:00,51.9,49.1,28.89,West,281,8.0,23.0,90,0.08,,---,0.49,VWS V13.01,2013-01-31 04:26:00,
2013-01-30 23:31:00,51.8,49.0,28.89,WNW,284,8.0,12.0,90,0.06,,---,0.49,VWS V13.01,2013-01-31 04:31:00,
2013-01-30 23:36:00,51.5,48.7,28.90,West,277,10.0,12.0,90,0.07,,---,0.50,VWS V13.01,2013-01-31 04:36:00,
2013-01-30 23:42:00,51.4,48.6,28.90,WNW,282,5.0,14.0,90,0.07,,---,0.51,VWS V13.01,2013-01-31 04:42:00,
2013-01-30 23:47:00,51.3,48.8,28.89,WNW,283,7.0,14.0,91,0.09,,---,0.52,VWS V13.01,2013-01-31 04:47:00,
2013-01-30 23:52:00,50.9,48.1,28.90,WSW,251,16.0,22.0,90,0.11,,---,0.54,VWS V13.01,2013-01-31 04:52:00,
2013-01-30 23:57:00,50.0,46.3,28.90,West,268,15.0,37.0,87,0.14,,---,0.57,VWS V13.01,2013-01-31 04:57:00,